Regional Weather Roundup
Issued by NWS Jackson, KY

Home | Current Version | Previous Version | Text Only | Print | Product List | Glossary Off
Versions: 1 2 3 4 5 6 7 8 9 10 11 12 13 14 15 16 17 18 19 20 21 22 23 24 25 26 27 28 29 30 31 32 33 34 35 36 37 38 39 40 41 42 43 44 45 46 47 48 49 50

000
ASUS43 KJKL 272110
RWRJKL

EAST KENTUCKY HOURLY WEATHER ROUNDUP
NATIONAL WEATHER SERVICE JACKSON KY
500 PM EDT MON JUL 27 2015

NOTE: "FAIR" INDICATES FEW OR NO CLOUDS BELOW 12,000 FEET WITH
NO SIGNIFICANT WEATHER AND/OR OBSTRUCTIONS TO VISIBILITY.

* THESE REPORTS ARE NOT UNDER NWS QUALITY CONTROL AND MAY NOT
  REPORT WEATHER SUCH AS PRECIPITATION AND FOG.

KYZ079-080-083-085-087-088-110-112-115-119-120-272200
...EASTERN KENTUCKY...

CITY           SKY/WX    TMP DP  RH WIND       PRES   REMARKS
JACKSON        LGT RAIN  79  74  84 CALM      30.00S
LONDON         PTSUNNY   87  70  56 NW6       29.99F HX  92
SOMERSET*      PTSUNNY   86  68  54 W8        29.99S
MONTICELLO*    PTSUNNY   88  77  69 CALM      30.01S HX 100
MIDDLESBORO*   PTSUNNY   90  73  58 W3        29.99S HX  97
HAZARD APT*    PTCLDY    84  72  65 W6        29.99F
BLACK MTN*       N/A     79  72  78 N5          N/A
PIKEVILLE APT* CLOUDY    82  70  65 S3        30.00F
BIG SANDY*     PTCLDY    87  72  61 S6        29.98F HX  93
MOREHEAD APT*  MOCLDY    86  72  62 CALM      29.99S HX  92
$$

KYZ035-036-041-042-044-050-067-078-099-272200
...CENTRAL KENTUCKY...

CITY           SKY/WX    TMP DP  RH WIND       PRES   REMARKS
MT STERLING*   MOSUNNY   86  72  62 NW8       29.98F HX  92
FLEMING/MASON* MOSUNNY   82  73  74 CALM      29.97F
DANVILLE*      CLOUDY    82  75  78 S3        29.99F
RICHMOND*      MOSUNNY   84  72  65 W6        29.98S
LEXINGTON      MOSUNNY   87  73  62 SW8       29.97F HX  94
FRANKFORT      MOSUNNY   86  72  62 W7        29.95F HX  92
$$

KYZ091>093-OHZ055-061-077-WVZ005-015-034-035-042-272200
...SOUTHERN OHIO/WEST VIRGINIA...

CITY           SKY/WX    TMP DP  RH WIND       PRES   REMARKS
COVINGTON      PTSUNNY   88  72  58 NW6       29.96F HX  94
COLUMBUS       PTSUNNY   84  70  62 VRB5      29.97F
DAYTON         PTSUNNY   82  72  71 NE8       29.99F
WILMINGTON     MOSUNNY   82  71  69 CALM      29.98F
HUNTINGTON     PTSUNNY   86  73  65 SW5       29.96F HX  93
CHARLESTON     MOSUNNY   86  70  58 CALM      29.96F HX  90
PINEVILLE*     MOSUNNY   79  75  88 MISG      30.08S
BECKLEY        SUNNY     83  63  50 VRB3      30.06F
BLUEFIELD      MOSUNNY   81  68  64 CALM      30.09F
$$

VAZ002-007-008-TNZ017-027-036-066-071-272200
...SOUTHWEST VIRGINIA/EAST TENNESSEE...

CITY           SKY/WX    TMP DP  RH WIND       PRES   REMARKS
WISE*          MOSUNNY   82  66  57 S6        30.09F
ABINGDON*      CLOUDY    82  68  63 W3        30.05F
BRISTOL        CLOUDY    79  71  76 VRB3      30.01F
KNOXVILLE      CLOUDY    87  69  54 NW7       29.96F HX  91
OAK RIDGE      PTSUNNY   90  73  57 VRB3      29.98F HX  98
CROSSVILLE     PTSUNNY   88  69  53 VRB7      30.04F HX  92
NASHVILLE      PTSUNNY   92  73  53 SW8       29.95F HX 100
$$

...KEY TO REMARKS...
VSB - VISIBILITY IN MILES
WCI - WIND CHILL INDEX
HX  - HEAT INDEX

$$



USA.gov is the U.S. government's official web portal to all federal, state and local government web resources and services.